Weather Roundup
Issued by NWS

Home | Current Version | Previous Version | Graphics & Text | Print | Product List | Glossary Off
Versions: 1 2 3 4 5 6 7 8 9 10 11 12 13 14 15 16 17 18 19 20 21 22 23 24 25 26 27 28 29 30 31 32 33 34 35 36 37 38 39 40 41 42 43 44 45 46 47 48 49 50

000
NZUS93 KARX 181210
HRRWXR

CURRENT HOURLY OBSERVATIONS ACROSS
MUCH OF THE UPPER MISSISSIPPI VALLEY
NATIONAL WEATHER SERVICE LA CROSSE WI
600 AM CST WED JAN 18 2017


...SOUTHEAST MINNESOTA...


CITY           SKY/WX    TMP DP  RH WIND       PRES   REMARKS
ROCHESTER      CLOUDY    26  25  96 S18       29.99F FOG     WCI  13
ROCHESTER/MAYO PTSUNNY   27  27 100 S12G20    30.00S WCI  17
WINONA         CLOUDY    32  28  86 S6        30.04S WCI  26
AUSTIN         CLOUDY    27  27 100 S10       30.00F FOG     WCI  17
ALBERT LEA     CLOUDY    28  27  93 S6        29.98F FOG     WCI  22
DODGE CENTER   CLOUDY    27  27 100 S7        29.97F FOG     WCI  19
PRESTON        CLOUDY    27  26  96 SW14      30.01F FOG     WCI  15
OWATONNA       CLEAR     27  25  93 S13       29.96S WCI  16
FARIBAULT      CLOUDY    27  27 100 S6        29.97R WCI  20
$$

...ELSEWHERE IN MINNESOTA...


CITY           SKY/WX    TMP DP  RH WIND       PRES   REMARKS
MINNEAPOLIS    CLEAR     28  24  85 S8        29.94F FOG     WCI  20
INTNL FALLS    CLOUDY    24  16  71 SW7       29.68R WCI  16
DULUTH         CLOUDY    26  25  96 SW17G24   29.76F FOG     WCI  13
RED WING       CLOUDY    28  25  86 S6        29.99S WCI  22
REDWOOD FALLS  CLOUDY    26  22  84 S13       29.89F WCI  15
MANKATO        CLOUDY    28  26  92 S8        29.96S WCI  20
WORTHINGTON    CLOUDY    28  26  92 SW16      29.92S WCI  16
FAIRMONT       CLEAR     30  27  88 S17       29.95F WCI  18
$$

...SOUTHWEST WISCONSIN...


CITY           SKY/WX    TMP DP  RH WIND       PRES   REMARKS
LA CROSSE      CLOUDY    33  29  85 S10       30.05S WCI  25
PRAIRIE DU CHI CLOUDY    32  30  91 SW5       30.09S WCI  27
BOSCOBEL       CLOUDY    33  31  92 SW9       30.09R WCI  25
LONE ROCK      CLOUDY    33  31  92 W7        30.08R WCI  27
PLATTEVILLE    CLOUDY    32  32 100 SW14      30.09S WCI  22
FORT MC COY    CLOUDY    31  30  96 SW6       30.05S WCI  25
CAMP DOUGLAS   CLOUDY    32  32 100 SW9       30.02S WCI  24
MAUSTON-NEW LI CLOUDY    32  32 100 SW7       30.02F FOG     WCI  26
VIROQUA        CLOUDY    30  30 100 SW13      30.04S WCI  20
WIS DELLS      CLOUDY    31  31 100 SW10      30.04S FOG     WCI  22
$$

...ELSEWHERE IN WISCONSIN...


CITY           SKY/WX    TMP DP  RH WIND       PRES   REMARKS
MILWAUKEE      CLOUDY    36  33  89 W8        30.05R FOG     WCI  30
MADISON        CLOUDY    31  30  96 VRB5      30.07R WCI  26
GREEN BAY      FOG       34  34 100 SW8       30.01R VSB 1   WCI  27
EAU CLAIRE     CLOUDY    28  26  92 SW13      29.99R WCI  17
BLACK RVR FLS  CLOUDY    32  32 100 SW10      30.02R WCI  24
MEDFORD        CLOUDY    28  28  97 SW8       29.95S FOG     WCI  20
WAUSAU         FOG       30  30 100 W7        29.97R VSB 1   WCI  23
WIS RAPIDS     FOG       31  31 100 SW12      30.00F VSB 1/2 WCI  22
MARSHFIELD     CLOUDY    29  28  96 W10       29.97R FOG     WCI  20
RICE LAKE      CLOUDY    27  25  95 S9        29.94F WCI  17
$$

...NORTHEAST IOWA...


CITY           SKY/WX    TMP DP  RH WIND       PRES   REMARKS
WATERLOO       CLOUDY    30  27  88 SW8       30.08F WCI  22
DUBUQUE        CLOUDY    30  30 100 W15       30.08S FOG     WCI  19
DECORAH        CLOUDY    28  28 100 SW8G17    30.05S WCI  20
MASON CITY     CLOUDY    28  27  96 S10       30.02F FOG     WCI  19
CHARLES CITY   CLOUDY    28  28 100 SW10G16   30.05F FOG     WCI  19
OELWEIN        CLOUDY    30  30 100 SW10      30.07F FOG     WCI  21
$$

...ELSEWHERE IN IOWA...


CITY           SKY/WX    TMP DP  RH WIND       PRES   REMARKS
DES MOINES     FOG       31  30  96 SW10      30.09F VSB 1/2 WCI  22
IOWA CITY      CLOUDY    32  29  88 W6        30.13F WCI  26
FORT DODGE     CLOUDY    28  27  93 MISG      30.02F
MARSHALLTOWN   CLOUDY    30  29  96 S6        30.07F FOG     WCI  24
CEDAR RAPIDS   CLOUDY    30  29  96 SW6       30.10S FOG     WCI  24
$$

...NORTHERN ILLINOIS...


CITY           SKY/WX    TMP DP  RH WIND       PRES   REMARKS
CHICAGO-OHARE  DRIZZLE   35  33  92 W10       30.09R FOG     WCI  27
CHICAGO-MIDWAY CLOUDY    33  32  96 W10       30.10S FOG     WCI  25
MOLINE         CLOUDY    34  30  85 W9        30.12S WCI  27
ROCKFORD       DRIZZLE   33  31  92 W12       30.12S FOG     WCI  24
PEORIA         CLOUDY    36  34  92 W9        30.16R WCI  29
$$

NOTE: "FAIR" INDICATES FEW OR NO CLOUDS BELOW 12,000 FEET WITH NO
SIGNIFICANT WEATHER AND/OR OBSTRUCTIONS TO VISIBILITY. WIND
SPEEDS ARE IN MILES-PER-HOUR.




USA.gov is the U.S. government's official web portal to all federal, state and local government web resources and services.